Weather in Yelkhovka

Russia / Ulyanovsk Oblast     54°40′26″N   46°38′56″E
temp.,
°C
wind,
m/s
gust,
m/s
humid.,
%
clouds,
%
prec.,
mm/h
press.,
hPa
HPBL,
m
21 january, thu
thu2101:00−18sw269799 0.1 1019140
04:00−17wsw2697100 0.1 1019169
07:00−15wsw389698 0.3 1019227
10:00−13w389597 0.5 1020335
13:00−10w4893100 0.3 1020388
16:00−11wsw41092100 0.4 1019423
19:00−11wsw41090100 0.2 1018372
22:00−11sw4994100 0.8 1017397
22 january, fri
fri2201:00−12sw3895100 1.0 1017446
04:00−15wsw2396100 1.1 101750
07:00−15wsw1296100 0.0 101820
10:00−15sw1195100 0.0 101920
13:00−12ssw119096 0.0 1019180
16:00−12s129498 0.0 102020
19:00−13se229496 0.0 102077
22:00−11ese379598 0.2 1021236
23 january, sat
sat2301:00−10se4994100 0.5 1021303
04:00−9se4895100 1.3 1020264
07:00−7sse4895100 0.5 1019217
10:00−4sse4996100 1.1 1018324
13:00+1ssw511100100 0.6 1017446
16:00+1sw411100100 0.6 1017483
19:00+1sw41295100 0.0 1018569
22:00+1sw41194100 0.0 1018490
24 january, sun
sun2401:00+1sw41296100 0.0 1019585
04:00+1sw4997100 0.0 1020342
07:00+1ssw3897100 0.0 1020341
10:00+1ssw3998100 0.1 1020333
13:00+1sw41097100 0.1 1021423
16:00+1ssw31095100 0.3 1021400
19:000ssw31090100 0.2 1022408
22:00−1ssw3991100 0.6 1023431
25 january, mon
mon2501:000ssw31192100 0.8 1023480
04:000ssw41191100 0.9 1024468
07:00−3s41093100 0.0 1024334
10:00−2s4992100 0.0 1024614
13:000sse51087100 0.0 1024756
16:00−1sse51093100 0.1 1023633
19:00−3sse51092100 0.1 1023523
22:00−3s41093100 0.1 1023517